Regional Weather Roundup
Issued by NWS

Home | Current Version | Previous Version | Text Only | Print | Product List | Glossary Off
Versions: 1 2 3 4 5 6 7 8 9 10 11 12 13 14 15 16 17 18 19 20 21 22 23 24 25 26 27 28 29 30 31 32 33 34 35 36 37 38 39 40 41 42 43 44 45 46 47 48 49 50

000
ASUS45 KBOU 011607
RWRCO

WEATHER ROUNDUP FOR COLORADO
NATIONAL WEATHER SERVICE DENVER/BOULDER CO
1000 AM MDT WED APR 01 2015

NOTE: "FAIR" INDICATES FEW OR NO CLOUDS BELOW 12000 FEET WITH NO
SIGNIFICANT WEATHER AND/OR OBSTRUCTIONS TO VISIBILITY.

COZ001>005-013-030-031-011700-
...NORTHWEST COLORADO...

CITY           SKY/WX    TMP DP  RH WIND       PRES   REMARKS
CRAIG          PTSUNNY   52  26  36 NW16      29.94R
HAYDEN         PTSUNNY   48  21  34 W22G28    29.91R
MEEKER         CLOUDY    53  29  39 N9        29.93R
MOUNT WERNER   NOT AVBL
STEAMBOAT SPGS PTSUNNY   52  29  41 SW13G18   29.90R
WALDEN         MOSUNNY   50  25  37 W13       29.91R
$$

COZ006>008-011-011700-
...WEST CENTRAL VALLEYS...

CITY           SKY/WX    TMP DP  RH WIND       PRES   REMARKS
GRAND JUNCTION MOSUNNY   59  29  31 W9        29.86R
MONTROSE       SUNNY     64  24  21 SW15G24   29.91F
EAGLE          MOSUNNY   50  27  40 CALM      29.90F
RIFLE          PTSUNNY   49  28  44 CALM      29.87S
DELTA          SUNNY     64  25  22 NE3       29.89S
NUCLA          SUNNY     61  27  27 SW14      29.98R
$$

COZ017>023-064>068-011700-
...SOUTHWEST COLORADO...

CITY           SKY/WX    TMP DP  RH WIND       PRES   REMARKS
DURANGO        SUNNY     56  27  32 SW12      30.01S
CORTEZ         SUNNY     62  30  29 SW21      29.99R
PAGOSA SPRINGS SUNNY     52  23  33 SW7       30.05S
TELLURIDE      MOSUNNY   48  20  33 SW13G24   30.08S
WOLF CREEK PAS SUNNY     32  21  64 SW17G28   30.18R WCI  21
$$

COZ009-010-012-014-032>034-037-058>063-011700-
...CENTRAL COLORADO...

CITY           SKY/WX    TMP DP  RH WIND       PRES   REMARKS
ASPEN          PTSUNNY   51  24  34 S10       29.95F
BUENA VISTA    PTSUNNY   54  17  23 W16G26    29.94S
COPPER MTN     CLOUDY    36  19  51 SW8       30.08R
BERTHOUD PASS  FAIR      30  23  74 W18G36    30.08R WCI  18
COTTONWOOD PAS MOSUNNY   46  14  27 W23G39    30.00S
GUNNISON       MOSUNNY   45  27  49 CALM      30.01F
KREMMLING      SUNNY     55  19  24 W13       29.90S
LEADVILLE      NOT AVBL
SALIDA         MOSUNNY   59  19  21 SW21G33   30.01S
SUNLIGHT       CLOUDY    41  23  48 CALM      30.07S
WILKERSON PASS SUNNY     41  12  30 SW6       30.08R
$$

COZ069>075-011700-
...SAN LUIS VALLEY/SANGRE DE CRISTO MOUNTAINS...

CITY           SKY/WX    TMP DP  RH WIND       PRES   REMARKS
ALAMOSA        MOSUNNY   58  22  24 SW8G17    29.98F
LA VETA PASS   PTSUNNY   39  23  52 S10G18    30.06R
SAGUACHE       NOT AVBL
$$

COZ035-036-038>040-011700-
...NORTHERN COLORADO FRONT RANGE...

CITY           SKY/WX    TMP DP  RH WIND       PRES   REMARKS
DENVER INTL AP PTSUNNY   67  27  22 W12       29.78S
DMNS CITY PARK   N/A     68  22  17 E1G8      29.78S
AURORA         PTSUNNY   64  25  22 NW6       29.80S
FRONT RANGE AP PTSUNNY   66  30  26 SW9       29.80R
ERIE MUNI ARPT MOSUNNY   69  19  14 NW10G18   29.77S
BOULDER MUN AP PTSUNNY   64  23  20 NW10      29.77S
CENTENNIAL     PTSUNNY   64  23  21 W7        29.80S
BROOMFIELD     PTSUNNY   66  21  18 NW18G30   29.79F
FORT COLLINS   PTSUNNY   66  28  24 W9        29.78R
LONGMONT       PTSUNNY   71  22  16 W9        29.79R
$$

COZ041-046-047-076>085-087-088-011700-
...PIKES PEAK/PALMER DIVIDE AND SOUTHERN FOOTHILLS...

CITY           SKY/WX    TMP DP  RH WIND       PRES   REMARKS
COLO. SPRINGS  PTSUNNY   65  18  16 CALM      29.86R
A. F. ACADEMY  MOSUNNY   62  18  18 S5        29.86R
ELLICOTT       NOT AVBL
FALCON         PTSUNNY   61  19  19 NW10      29.90R
FORT CARSON    MOSUNNY   65  23  20 SW12      29.83R
LIMON          CLOUDY    62  26  25 W13       29.79R
MONUMENT HILL  PTSUNNY   61  21  21 SW6       29.87S
TRINIDAD       CLOUDY    65  27  23 W13       29.87R
$$

COZ042>045-048>051-090-091-011700-
...NORTHEAST COLORADO...

CITY           SKY/WX    TMP DP  RH WIND       PRES   REMARKS
GREELEY ARPT   PTSUNNY   66  28  24 NW9       29.75S
AKRON          CLOUDY    61  27  27 NW14      29.75R
BURLINGTON     MOSUNNY   75  27  17 W22       29.73S
WRAY           PTSUNNY   69  27  20 W14       29.69S
STERLING       CLOUDY    68  32  26 NW13      29.71S
HOLYOKE        PTSUNNY   73  28  19 NW12G20   29.69R
FORT MORGAN      N/A    N/A N/A N/A MISG        N/A
$$

COZ086-089-092>099-011700-
...SOUTHEAST COLORADO...

CITY           SKY/WX    TMP DP  RH WIND       PRES   REMARKS
PUEBLO         PTSUNNY   58  30  34 VRB3      29.80R
LA JUNTA       PTSUNNY   65  27  23 W10       29.78R
LAMAR          MOSUNNY   68  31  25 W10       29.73S
SPRINGFIELD      N/A     78  23  13 NW10      29.77S
$$



USA.gov is the U.S. government's official web portal to all federal, state and local government web resources and services.